7 * 24
多渠道服务支持
STARLINK-36370(NORAD编号67937)是美国SpaceX公司星链(Starlink)星座中的一颗低轨通信卫星,隶属于全球规模最大的低轨卫星互联网项目。星链项目旨在通过部署近地轨道卫星星座,为全球偏远地区、海洋、航空等传统网络难以覆盖的区域提供高速低延迟互联网接入服务。该卫星运行在近地轨道,属于星链大规模组网中的一员,依托星座的规模优势,参与完成天基通信信号覆盖,支撑星链面向个人、商业及特殊场景的互联网服务能力,是星链持续扩展星座部署过程中入轨的卫星之一。
美国
(US)
| 数据来源 | 国际轨道数据 |
| 星历时间: | 2026-06-13T04:42:34+0800 7小时前 查看轨道信息 |
| 半长轴: | 6861.102km |
| 偏心率: | 0.0001254 |
| 轨道倾角: | 43.009° |
| 近地点辐角 | 281.113° |
| 升交点赤经 | 13.477° |
| 平近点角 | 78.959° |
| 近地点: | 482.104km |
| 远地点: | 483.826km |
| 周期: | 94.265分钟 |
| 每日圈数: | 15.276084 |